Regional Weather Roundup
Issued by NWS Wakefield, VA

Home | Current Version | Previous Version | Graphics & Text | Print | Product List | Glossary On
Versions: 1 2 3 4 5 6 7 8 9 10 11 12 13 14 15 16 17 18 19 20 21 22 23 24 25 26 27 28 29 30 31 32 33 34 35 36 37 38 39 40 41 42 43 44 45 46 47 48 49 50
000
ASUS41 KAKQ 291114
RWRAKQ
REGIONAL WEATHER ROUNDUP
NATIONAL WEATHER SERVICE WAKEFIELD VA
700 AM EDT SUN MAR 29 2015

Note: "fair" indicates few or no clouds below 12,000 feet with no
significant weather and/or obstructions to visibility. * = Denotes
station may not report precipitation (e.g., rain,snow,etc.),
thunder or fog.

VAZ042-051-052>054-056-291200-
NORTHERN VIRGINIA

CITY           SKY/WX    TMP DP  RH WIND       PRES   REMARKS
WASH NATIONAL  CLEAR     28   8  43 NW13      30.37R WCI  17
DULLES         CLEAR     22   6  50 NW5       30.36R
FORT BELVOIR   CLEAR     25   7  46 NW8       30.37R
QUANTICO       CLEAR     25   6  44 NW8       30.39R
FREDERICKSBRG* CLEAR     26   8  48 NW6       30.37R
STAFFORD*      CLEAR     20   8  59 NW5       30.41R
WARRENTON      CLEAR     24  14  66 NW7       30.36R
CULPEPER*      CLEAR     25   7  46 NW3       30.36R
MANASSAS*      CLEAR     21  10  63 NW7       30.37R
LEESBURG*      CLEAR     23  12  63 NW7       30.36R
WINCHESTER     CLEAR     23   3  42 CALM      30.34R
FRONT ROYAL*   FAIR      19   9  63 CALM      30.34R
LURAY*         FAIR      21  12  68 CALM      30.34R
$$

VAZ048-049-060>072-079>083-291200-
CENTRAL AND SOUTH CENTRAL VIRGINIA

CITY           SKY/WX    TMP DP  RH WIND       PRES   REMARKS
RICHMOND       CLEAR     27   6  41 N7        30.36R
CHESTERFIELD*  NOT AVBL
PETERSBURG*    CLEAR     26  10  52 NW3       30.38R
HANOVER        CLEAR     25   5  42 VRB5      30.38R
TAPPAHANNOCK*  CLEAR     25   5  41 W3        30.36R
QUINTON*       FAIR      25   7  46 NW6       30.36R
CHARLOTTSVILLE CLEAR     26   3  37 N6        30.35R
GORDONSVILLE*  FAIR      17  13  84 CALM      30.36R
ORANGE*        CLEAR     19  16  86 S3        30.37R
LOUISA*        CLEAR     16  10  79 CALM      30.35R
BUMPASS*       FAIR      23   9  53 CALM      30.36R
FARMVILLE*     CLEAR     22  14  72 CALM      30.36R
CREWE*         FAIR      21  14  74 MISG      30.36R
FORT PICKETT*  FAIR      23  11  59 CALM      30.36R
CHASE CITY*    FAIR      24  16  73 CALM      30.37R
CLARKSVILLE*   FAIR      23  18  80 CALM      30.35R
SOUTH HILL*    CLEAR     22  12  66 CALM      30.42R
LAWRENCEVILLE* FAIR      24  13  65 CALM      30.36R
EMPORIA*       CLEAR     23  14  68 CALM      30.39R
$$

VAZ088>098-291200-
SOUTHEAST VIRGINIA

CITY           SKY/WX    TMP DP  RH WIND       PRES   REMARKS
NORFOLK        CLEAR     29   7  39 NW9G20    30.34R
VIRGINIA BEACH PTCLDY    31  12  45 NW13      30.33R WCI  21
NORFOLK NAVAL  PTCLDY    32   8  36 NW17      30.35R WCI  21
WEST POINT*    FAIR      28   7  41 NW6       30.37R
SALUDA*        FAIR      28   8  43 NW10G17   30.34R WCI  18
NEWPORT NEWS   NOT AVBL
LANGLEY AFB    CLEAR     28   6  40 N12       30.34R WCI  18
FORT EUSTIS    CLEAR     28  11  48 N12G22    30.33R WCI  18
WILLIAMSBURG*  CLEAR     28  12  50 NW8       30.37R
HR EXEC AP*    FAIR      28   9  43 NW3       30.36R
FRANKLIN*      CLEAR     26  10  51 N5        30.37R
WAKEFIELD      CLEAR     27   8  44 N5        30.36R
$$

VAZ020-022-025-037-045-291200-
WEST CENTRAL AND SOUTHWEST VIRGINIA

CITY           SKY/WX    TMP DP  RH WIND       PRES   REMARKS
STAUNTON*      CLEAR     17   9  72 CALM      30.34R
WAYNESBORO*    FAIR      20   6  54 W3        30.30R
HOT SPRINGS VA CLEAR     12   3  67 NW9       30.13R
LYNCHBURG      CLEAR     19  10  68 CALM      30.36R
DANVILLE       CLEAR     22  13  68 CALM      30.38R
SOUTH BOSTON*  FAIR      19  14  78 NW6       30.37R
MARTINSVILLE   CLEAR     18  13  79 CALM      30.38R
ROANOKE        CLEAR     23   6  48 W6        30.36R
BLACKSBURG     CLEAR     18   7  63 SW3       30.33R
DUBLIN*        CLEAR     20  11  67 W5        30.32R
MARION*        CLEAR     21   7  53 S5        30.31R
HILLSVILLE*    CLEAR     20   7  58 NW5       30.26R
RICHLANDS*     FAIR      19   4  52 CALM      30.28R
WISE*          CLEAR     19   7  58 CALM      30.29R
ABINGDON*      CLEAR     20  13  73 CALM      30.32R
$$

MDZ021>025-VAZ099-100-291200-
SOUTHERN MARYLAND AND THE DELMARVA PENINSULA

CITY           SKY/WX    TMP DP  RH WIND       PRES   REMARKS
PATUXENT RIVER PTCLDY    26   7  44 NW13G21   30.34R WCI  15
BAY BRIDGE APT   N/A     28   9  43 NW13G21   30.33R WCI  18
LEONARDTOWN    CLEAR     27   7  43 W6        30.35R
DOVER          CLEAR     25   8  48 NW10      30.29R WCI  15
GEORGETOWN     CLEAR     25   7  46 NW3       30.29R
EASTON         CLEAR     28  12  50 NW12G17   30.35R WCI  18
CAMBRIDGE      CLEAR     32  10  40 NW9G20    30.32R
SALISBURY      CLEAR     25   8  48 NW9       30.30R
OCEAN CITY     CLEAR     25   7  46 NW6       30.29R
WALLOPS ISLAND CLEAR     26   5  40 N9        30.31R
ACCOMACK*      CLOUDY    30  10  43 N9        30.31R
$$

NCZ012>017-030>032-291200-
NORTH CENTRAL AND EASTERN NORTH CAROLINA

CITY           SKY/WX    TMP DP  RH WIND       PRES   REMARKS
ROANOKE RAPIDS FAIR      27  14  59 CALM      30.37R
RALEIGH        CLEAR     25  13  60 CALM      30.37R
ELIZABETH CITY CLEAR     28  12  51 NW12      30.35R WCI  18
AHOSKIE*       CLEAR     26  14  60 CALM      30.38R
EDENTON*       CLEAR     28  16  61 N8        30.36R
CURRITUCK*     CLEAR     29  13  52 W3        30.34R
KILL DEVIL HLS CLEAR     31  12  45 NW13G21   30.32R WCI  21
MANTEO         CLEAR     31  12  44 N15G23    30.33R WCI  20
CAPE HATTERAS  CLEAR     32  14  47 N12G24    30.32R WCI  23
TARBORO*       FAIR      28  16  61 NW3       30.38R
GOLDSBORO      CLEAR     29  21  72 NW5       30.37R
WASHINGTON     CLEAR     27  18  71 CALM      30.37R
GREENVILLE     CLEAR     28  16  59 CALM      30.37R
NEW BERN       CLEAR     28  17  63 NW6       30.38R
WILMINGTON     CLEAR     29  19  66 N6        30.38R
$$

VAZ048-291200-
ELSEWHERE

CITY           SKY/WX    TMP DP  RH WIND       PRES   REMARKS
HARRISBURG PA  CLEAR     24  11  57 W9        30.31R
BALTIMORE      CLEAR     22   8  55 W7        30.33R
ANNAPOLIS      CLEAR     26  10  50 NW8       30.33R
ANDREWS AFB    CLEAR     25   7  46 NW12      30.33R WCI  14
PHILADELPHIA   PTCLDY    26   5  40 NW14      30.28R WCI  14
HENDERSON NC   CLEAR     25  10  54 CALM      30.36R
GREENSBORO     CLEAR     26   7  44 N5        30.34R
ROCKY MOUNT    CLEAR     27  14  58 NW7       30.38R
$$

VAZ100-291200-
MARINE

STATION/POSITION TIME  TEMP    WIND        PRES    WAVE   SWELL
                       AIR SEA DIR/SP/G            HT/PER HT/PER
                 (UTC) (F)     (DEG/KT/KT) (MB)    (FT/S) (FT/S)
15NM E FENWICK I 1050   29 39              1023.7R   6/ 5
THOMAS POINT MD  1100                        N/A
STINGRAY PT      1100   30 43  330/ 16/ 21   N/A     2/ 3
CHESAPEAKE LGHT  1000   32     330/ 23/ 26 1025.7R
CAPE HENRY BUOY  1028      40                N/A     4/ 4
1ST LANDING BUOY 1100   32     330/ 19/ 27 1026.7R   3/ 3
OFFSHORE WE BUOY 1011      40                N/A     5/ 5   2/10
64NM E OF VA BCH 1050   35 54  330/ 21/ 27 1024.2R   6/ 6   2/ 9
44056 DUCK FRF   1011      42                N/A     4/ 6   2/11
CAPE LOOKOUT NC  1100   34     340/ 16/ 20 1027.3R
$$



USA.gov is the U.S. government's official web portal to all federal, state and local government web resources and services.